Location: Barrio de Canyet
(41.4665°N, 2.2381°E)
Time: 02:30:10
(UTC+00:00)

In-Cosmos 22 Rocket - Pass Details

Date: 09 April 2020
Orbit: 790 x 889 km, 81.2° (Epoch: 05 June)

Event Time Altitude Azimuth Distance (km) Brightness Sun altitude
Rises 20:22:58 0° 352° (N) 3,506 8.0 -21.2°
Reaches altitude 10° 20:25:28 10° 355° (N) 2,563 7.2 -21.6°
Maximum altitude 20:31:18 71° 79° (ENE) 935 4.2 -22.5°
Enters shadow 20:32:57 47° 147° (SSE) 1,149 4.4 -22.7°
